| time (UTC) | temp F | wind direction | speed MPH | gust MPH | rain 1hr in | rain 24hr in | rain mn in | humidity % | barometer mb |
| 20260506062155 | 31 | 302 | 1.0 | 6.0 | 0.00 | 0.11 | 0.00 | 91 | 1014.0 |
| 20260506061649 | 31 | 300 | 1.0 | 6.0 | 0.00 | 0.11 | 0.00 | 91 | 1014.0 |
| 20260506061529 | 30 | 309 | 0.0 | 7.0 | 0.00 | 0.11 | 0.00 | 90 | 1014.4 |
| 20260506061149 | 31 | 304 | 3.0 | 8.0 | 0.00 | 0.11 | 0.00 | 90 | 1014.0 |
| 20260506060650 | 31 | 335 | 3.0 | 8.0 | 0.00 | 0.12 | 0.00 | 90 | 1013.8 |
| 20260506060148 | 31 | 308 | 2.0 | 8.0 | 0.00 | 0.12 | 0.00 | 90 | 1013.7 |
| 20260506051139 | 31 | 359 | 2.0 | 9.0 | 0.00 | 0.12 | 0.12 | 90 | 1013.6 |
| 20260506050639 | 31 | 319 | 2.0 | 9.0 | 0.00 | 0.12 | 0.12 | 90 | 1013.8 |
| 20260506050138 | 31 | 319 | 3.0 | 9.0 | 0.00 | 0.12 | 0.12 | 90 | 1013.8 |
| 20260506044637 | 31 | 288 | 3.0 | 8.0 | 0.00 | 0.12 | 0.12 | 90 | 1013.7 |
| 20260506044533 | 30 | 26 | 1.0 | 9.0 | 0.00 | 0.12 | 0.12 | 89 | 1014.0 |
| 20260506043633 | 31 | 321 | 2.0 | 7.0 | 0.00 | 0.12 | 0.12 | 89 | 1013.6 |
| 20260506043133 | 31 | 328 | 3.0 | 8.0 | 0.00 | 0.12 | 0.12 | 88 | 1013.6 |
| 20260506043024 | 31 | 277 | 2.0 | 10.0 | 0.00 | 0.12 | 0.12 | 88 | 1014.0 |
| 20260506042634 | 31 | 311 | 3.0 | 9.0 | 0.00 | 0.12 | 0.12 | 88 | 1013.5 |
| 20260506042134 | 31 | 295 | 2.0 | 9.0 | 0.00 | 0.12 | 0.12 | 88 | 1013.5 |
| 20260506041516 | 31 | 53 | 0.0 | 7.0 | 0.00 | 0.12 | 0.12 | 88 | 1014.1 |
| 20260506041136 | 31 | 341 | 2.0 | 6.0 | 0.00 | 0.12 | 0.12 | 88 | 1013.7 |
| 20260506040636 | 31 | 340 | 2.0 | 9.0 | 0.00 | 0.12 | 0.12 | 88 | 1013.6 |
| 20260506040010 | 31 | 317 | 2.0 | 10.0 | 0.00 | 0.12 | 0.12 | 88 | 1014.1 |
| 20260506035636 | 31 | 295 | 3.0 | 9.0 | 0.00 | 0.12 | 0.12 | 88 | 1013.6 |
| 20260506034631 | 31 | 316 | 2.0 | 7.0 | 0.00 | 0.12 | 0.12 | 89 | 1013.5 |
| 20260506034508 | 31 | 339 | 1.0 | 8.0 | 0.00 | 0.12 | 0.12 | 89 | 1014.0 |
| 20260506034132 | 31 | 343 | 2.0 | 8.0 | 0.00 | 0.12 | 0.12 | 90 | 1013.3 |
| 20260506033630 | 31 | 0 | 2.0 | 8.0 | 0.00 | 0.12 | 0.12 | 90 | 1013.5 |
| 20260506033129 | 31 | 320 | 2.0 | 6.0 | 0.00 | 0.12 | 0.12 | 90 | 1013.3 |
| 20260506033004 | 31 | 306 | 0.0 | 7.0 | 0.00 | 0.12 | 0.12 | 89 | 1013.9 |
| 20260506032630 | 31 | 317 | 3.0 | 9.0 | 0.00 | 0.12 | 0.12 | 90 | 1013.5 |
| 20260506032129 | 31 | 319 | 3.0 | 9.0 | 0.00 | 0.12 | 0.12 | 90 | 1013.2 |
| 20260506031629 | 31 | 349 | 2.0 | 6.0 | 0.00 | 0.12 | 0.12 | 90 | 1013.2 |
| 20260506031514 | 31 | 341 | 2.0 | 7.0 | 0.00 | 0.12 | 0.12 | 90 | 1013.9 |
| 20260506031131 | 31 | 0 | 1.0 | 6.0 | 0.00 | 0.12 | 0.12 | 91 | 1013.2 |
| 20260506030629 | 31 | 337 | 2.0 | 6.0 | 0.00 | 0.12 | 0.12 | 92 | 1013.1 |
| 20260506030130 | 31 | 349 | 1.0 | 6.0 | 0.00 | 0.12 | 0.12 | 92 | 1013.1 |
| 20260506030010 | 31 | 300 | 2.0 | 7.0 | 0.00 | 0.12 | 0.12 | 91 | 1013.6 |
| 20260506025631 | 31 | 320 | 1.0 | 6.0 | 0.00 | 0.12 | 0.12 | 93 | 1012.9 |
| 20260506025129 | 31 | 316 | 1.0 | 4.0 | 0.00 | 0.12 | 0.12 | 93 | 1012.7 |
| 20260506024630 | 31 | 359 | 1.0 | 5.0 | 0.01 | 0.12 | 0.12 | 93 | 1012.5 |
| 20260506024516 | 31 | 15 | 0.0 | 5.0 | 0.01 | 0.12 | 0.12 | 93 | 1013.2 |
| 20260506023630 | 31 | 340 | 2.0 | 7.0 | 0.01 | 0.12 | 0.12 | 94 | 1012.6 |
| 20260506023129 | 31 | 354 | 2.0 | 7.0 | 0.01 | 0.12 | 0.12 | 94 | 1012.5 |
| 20260506023007 | 31 | 348 | 1.0 | 8.0 | 0.01 | 0.12 | 0.12 | 93 | 1013.1 |
| 20260506022630 | 32 | 340 | 2.0 | 6.0 | 0.01 | 0.12 | 0.12 | 94 | 1012.5 |
| 20260506022128 | 32 | 350 | 2.0 | 6.0 | 0.01 | 0.12 | 0.12 | 94 | 1012.4 |
| 20260506021629 | 32 | 356 | 2.0 | 7.0 | 0.01 | 0.12 | 0.12 | 94 | 1012.1 |
| 20260506021504 | 32 | 5 | 2.0 | 8.0 | 0.01 | 0.12 | 0.12 | 93 | 1012.7 |
| 20260506021127 | 33 | 343 | 1.0 | 7.0 | 0.01 | 0.12 | 0.12 | 94 | 1012.1 |
| 20260506020626 | 33 | 338 | 0.0 | 3.0 | 0.01 | 0.12 | 0.12 | 95 | 1012.2 |
| 20260506020125 | 33 | 32 | 0.0 | 2.0 | 0.01 | 0.12 | 0.12 | 95 | 1012.1 |
| 20260506020008 | 33 | 101 | 0.0 | 2.0 | 0.01 | 0.12 | 0.12 | 95 | 1012.7 |
| 20260506015628 | 33 | 97 | 1.0 | 2.0 | 0.01 | 0.12 | 0.12 | 95 | 1012.0 |
| 20260506015123 | 33 | 97 | 1.0 | 2.0 | 0.02 | 0.12 | 0.12 | 95 | 1011.9 |
| 20260506014624 | 34 | 96 | 1.0 | 2.0 | 0.01 | 0.12 | 0.12 | 95 | 1011.8 |
| 20260506014514 | 33 | 105 | 0.0 | 2.0 | 0.01 | 0.12 | 0.11 | 94 | 1012.0 |
| 20260506014124 | 34 | 105 | 0.0 | 2.0 | 0.01 | 0.12 | 0.11 | 95 | 1011.8 |
| 20260506013621 | 34 | 105 | 0.0 | 1.0 | 0.01 | 0.13 | 0.11 | 95 | 1011.5 |
| 20260506013120 | 34 | 105 | 0.0 | 0.0 | 0.01 | 0.13 | 0.11 | 95 | 1011.6 |
| 20260506013011 | 33 | 109 | 0.0 | 0.0 | 0.01 | 0.13 | 0.11 | 95 | 1012.1 |
| 20260506012619 | 34 | 105 | 0.0 | 0.0 | 0.01 | 0.13 | 0.11 | 95 | 1011.5 |
| 20260506012120 | 33 | 105 | 1.0 | 4.0 | 0.01 | 0.13 | 0.11 | 95 | 1011.1 |
| 20260506011619 | 33 | 105 | 2.0 | 5.0 | 0.01 | 0.13 | 0.11 | 95 | 1011.1 |
| 20260506011511 | 33 | 109 | 1.0 | 5.0 | 0.01 | 0.13 | 0.11 | 94 | 1011.5 |
| 20260506011117 | 34 | 134 | 2.0 | 5.0 | 0.01 | 0.13 | 0.11 | 95 | 1011.1 |
| 20260506010616 | 33 | 92 | 2.0 | 5.0 | 0.01 | 0.13 | 0.11 | 95 | 1011.1 |
| 20260506010012 | 33 | 107 | 2.0 | 4.0 | 0.01 | 0.13 | 0.11 | 94 | 1011.8 |
| 20260506005616 | 33 | 124 | 2.0 | 4.0 | 0.01 | 0.13 | 0.11 | 95 | 1011.3 |
| 20260506005115 | 33 | 72 | 2.0 | 5.0 | 0.00 | 0.12 | 0.10 | 95 | 1011.3 |
| 20260506004521 | 33 | 102 | 2.0 | 6.0 | 0.00 | 0.12 | 0.10 | 94 | 1012.0 |
| 20260506004117 | 33 | 53 | 3.0 | 5.0 | 0.01 | 0.12 | 0.10 | 95 | 1011.4 |
| 20260506003610 | 33 | 151 | 2.0 | 5.0 | 0.01 | 0.12 | 0.10 | 95 | 1011.6 |
| 20260506003104 | 34 | 115 | 2.0 | 5.0 | 0.01 | 0.12 | 0.10 | 95 | 1011.8 |
| 20260506003015 | 33 | 120 | 1.0 | 6.0 | 0.01 | 0.12 | 0.10 | 94 | 1012.3 |
| 20260506002557 | 34 | 127 | 2.0 | 5.0 | 0.01 | 0.12 | 0.10 | 95 | 1011.6 |
| 20260506002051 | 34 | 98 | 3.0 | 6.0 | 0.02 | 0.12 | 0.10 | 95 | 1011.5 |
| 20260506001546 | 34 | 86 | 3.0 | 6.0 | 0.02 | 0.12 | 0.10 | 95 | 1011.5 |
| 20260506001503 | 33 | 49 | 3.0 | 7.0 | 0.02 | 0.12 | 0.10 | 94 | 1012.0 |
| 20260506001040 | 34 | 83 | 2.0 | 5.0 | 0.02 | 0.12 | 0.10 | 95 | 1011.4 |
| 20260506000534 | 34 | 102 | 2.0 | 5.0 | 0.02 | 0.12 | 0.10 | 95 | 1011.1 |
| 20260506000028 | 34 | 80 | 3.0 | 6.0 | 0.02 | 0.12 | 0.10 | 95 | 1011.0 |
| 20260506000004 | 33 | 84 | 1.0 | 7.0 | 0.02 | 0.12 | 0.10 | 94 | 1011.6 |
| 20260505235521 | 33 | 94 | 4.0 | 6.0 | 0.02 | 0.12 | 0.10 | 95 | 1011.0 |
| 20260505235015 | 33 | 135 | 4.0 | 8.0 | 0.02 | 0.12 | 0.10 | 95 | 1010.9 |
| 20260505234510 | 33 | 113 | 4.0 | 9.0 | 0.02 | 0.12 | 0.10 | 94 | 1011.5 |
| 20260505234003 | 33 | 79 | 5.0 | 8.0 | 0.01 | 0.11 | 0.09 | 95 | 1010.8 |
| 20260505233457 | 34 | 109 | 4.0 | 8.0 | 0.01 | 0.11 | 0.09 | 95 | 1010.8 |
| 20260505233014 | 33 | 87 | 4.0 | 10.0 | 0.01 | 0.11 | 0.09 | 94 | 1011.4 |
| 20260505232445 | 34 | 109 | 5.0 | 9.0 | 0.01 | 0.11 | 0.09 | 95 | 1010.8 |
| 20260505231940 | 34 | 86 | 5.0 | 9.0 | 0.00 | 0.10 | 0.08 | 95 | 1010.8 |
| 20260505231526 | 34 | 53 | 6.0 | 10.0 | 0.00 | 0.10 | 0.08 | 94 | 1011.2 |
| 20260505231433 | 35 | 94 | 4.0 | 9.0 | 0.00 | 0.10 | 0.08 | 95 | 1010.7 |
| 20260505230421 | 35 | 101 | 5.0 | 10.0 | 0.00 | 0.10 | 0.08 | 95 | 1010.5 |
| 20260505230025 | 34 | 105 | 4.0 | 11.0 | 0.00 | 0.10 | 0.08 | 94 | 1011.1 |
| 20260505225409 | 35 | 120 | 4.0 | 9.0 | 0.01 | 0.10 | 0.08 | 95 | 1010.4 |
| 20260505224904 | 35 | 120 | 4.0 | 8.0 | 0.01 | 0.10 | 0.08 | 95 | 1010.4 |
| 20260505224506 | 34 | 78 | 4.0 | 10.0 | 0.01 | 0.10 | 0.08 | 94 | 1011.0 |
| 20260505224357 | 35 | 105 | 4.0 | 9.0 | 0.01 | 0.10 | 0.08 | 95 | 1010.4 |
| 20260505223851 | 35 | 90 | 4.0 | 9.0 | 0.01 | 0.10 | 0.08 | 95 | 1010.4 |
| 20260505223345 | 35 | 122 | 4.0 | 9.0 | 0.01 | 0.10 | 0.08 | 95 | 1010.3 |
| 20260505223014 | 34 | 73 | 3.0 | 11.0 | 0.01 | 0.10 | 0.08 | 94 | 1010.8 |
| 20260505222840 | 35 | 91 | 5.0 | 10.0 | 0.01 | 0.10 | 0.08 | 95 | 1010.2 |
| 20260505222334 | 34 | 72 | 5.0 | 10.0 | 0.01 | 0.10 | 0.08 | 95 | 1010.2 |
| 20260505221827 | 34 | 103 | 5.0 | 9.0 | 0.01 | 0.10 | 0.08 | 95 | 1010.3 |
| 20260505221518 | 34 | 154 | 5.0 | 10.0 | 0.01 | 0.10 | 0.08 | 94 | 1010.9 |
| 20260505221321 | 34 | 86 | 5.0 | 9.0 | 0.01 | 0.10 | 0.08 | 94 | 1010.4 |
| 20260505220816 | 35 | 93 | 5.0 | 9.0 | 0.01 | 0.10 | 0.08 | 95 | 1010.4 |
| 20260505220310 | 35 | 68 | 5.0 | 9.0 | 0.01 | 0.10 | 0.08 | 95 | 1010.4 |
| 20260505220017 | 34 | 91 | 4.0 | 10.0 | 0.01 | 0.10 | 0.08 | 94 | 1011.0 |
| 20260505215804 | 35 | 103 | 5.0 | 9.0 | 0.00 | 0.09 | 0.07 | 94 | 1010.5 |
| 20260505214751 | 35 | 98 | 5.0 | 10.0 | 0.00 | 0.09 | 0.07 | 94 | 1010.9 |
| 20260505214522 | 34 | 115 | 4.0 | 11.0 | 0.00 | 0.09 | 0.07 | 94 | 1011.5 |
| 20260505214245 | 34 | 129 | 5.0 | 10.0 | 0.00 | 0.09 | 0.07 | 94 | 1010.8 |
| 20260505213234 | 35 | 72 | 5.0 | 11.0 | 0.00 | 0.09 | 0.07 | 94 | 1011.0 |
| 20260505213006 | 34 | 82 | 4.0 | 12.0 | 0.00 | 0.09 | 0.07 | 94 | 1011.5 |
| 20260505212728 | 34 | 67 | 5.0 | 11.0 | 0.00 | 0.09 | 0.07 | 94 | 1010.9 |
| 20260505212221 | 35 | 93 | 5.0 | 9.0 | 0.00 | 0.09 | 0.07 | 94 | 1011.0 |
| 20260505211514 | 34 | 89 | 5.0 | 10.0 | 0.00 | 0.09 | 0.07 | 94 | 1011.7 |
| 20260505211209 | 35 | 65 | 4.0 | 10.0 | 0.00 | 0.09 | 0.07 | 94 | 1011.3 |
| 20260505210703 | 35 | 108 | 6.0 | 10.0 | 0.00 | 0.09 | 0.07 | 94 | 1011.3 |
| 20260505210024 | 34 | 110 | 5.0 | 11.0 | 0.00 | 0.09 | 0.07 | 93 | 1011.9 |
| 20260505205651 | 35 | 96 | 3.0 | 8.0 | 0.00 | 0.09 | 0.07 | 94 | 1011.4 |
| 20260505205145 | 35 | 134 | 4.0 | 9.0 | 0.00 | 0.09 | 0.07 | 94 | 1011.4 |
| 20260505204639 | 35 | 60 | 5.0 | 9.0 | 0.00 | 0.09 | 0.07 | 94 | 1011.3 |
| 20260505204523 | 34 | 131 | 4.0 | 10.0 | 0.00 | 0.09 | 0.07 | 93 | 1011.8 |
| 20260505204134 | 35 | 47 | 5.0 | 8.0 | 0.00 | 0.09 | 0.07 | 94 | 1011.4 |
| 20260505203628 | 35 | 138 | 5.0 | 12.0 | 0.00 | 0.09 | 0.07 | 94 | 1011.3 |
| 20260505203121 | 35 | 143 | 5.0 | 12.0 | 0.00 | 0.09 | 0.07 | 94 | 1011.3 |
| 20260505203028 | 35 | 128 | 6.0 | 13.0 | 0.00 | 0.09 | 0.07 | 93 | 1011.8 |
| 20260505202109 | 35 | 124 | 5.0 | 10.0 | 0.01 | 0.09 | 0.07 | 94 | 1011.3 |
| 20260505201603 | 35 | 118 | 4.0 | 9.0 | 0.01 | 0.09 | 0.07 | 94 | 1011.6 |
| 20260505201510 | 35 | 136 | 3.0 | 10.0 | 0.01 | 0.09 | 0.07 | 93 | 1012.1 |
| 20260505201057 | 35 | 122 | 4.0 | 9.0 | 0.01 | 0.09 | 0.07 | 94 | 1011.6 |
| 20260505200551 | 35 | 103 | 5.0 | 9.0 | 0.01 | 0.09 | 0.07 | 94 | 1011.6 |
| 20260505200045 | 35 | 148 | 5.0 | 8.0 | 0.01 | 0.09 | 0.07 | 94 | 1011.8 |
| 20260505200030 | 35 | 58 | 4.0 | 9.0 | 0.01 | 0.09 | 0.07 | 93 | 1012.3 |
| 20260505195033 | 35 | 117 | 4.0 | 9.0 | 0.01 | 0.09 | 0.07 | 94 | 1012.0 |
| 20260505194527 | 35 | 105 | 4.0 | 9.0 | 0.01 | 0.09 | 0.07 | 94 | 1012.0 |
| 20260505194520 | 35 | 74 | 3.0 | 10.0 | 0.01 | 0.09 | 0.07 | 93 | 1012.5 |
| 20260505193516 | 35 | 98 | 4.0 | 8.0 | 0.02 | 0.09 | 0.07 | 93 | 1012.1 |
| 20260505193021 | 35 | 102 | 3.0 | 9.0 | 0.02 | 0.09 | 0.07 | 93 | 1012.6 |
| 20260505193010 | 35 | 61 | 4.0 | 8.0 | 0.02 | 0.09 | 0.07 | 94 | 1012.1 |
| 20260505191957 | 35 | 111 | 6.0 | 10.0 | 0.01 | 0.08 | 0.06 | 93 | 1011.9 |
| 20260505191521 | 35 | 105 | 5.0 | 11.0 | 0.01 | 0.08 | 0.06 | 93 | 1012.4 |
| 20260505191451 | 35 | 95 | 5.0 | 10.0 | 0.01 | 0.08 | 0.06 | 93 | 1011.9 |
| 20260505190945 | 36 | 58 | 5.0 | 10.0 | 0.01 | 0.08 | 0.06 | 94 | 1011.9 |
| 20260505190439 | 36 | 105 | 5.0 | 10.0 | 0.01 | 0.08 | 0.06 | 93 | 1012.1 |
| 20260505190011 | 35 | 113 | 4.0 | 8.0 | 0.01 | 0.08 | 0.06 | 93 | 1012.7 |
| 20260505185933 | 36 | 120 | 4.0 | 7.0 | 0.01 | 0.08 | 0.06 | 94 | 1012.1 |
| 20260505185427 | 36 | 111 | 5.0 | 9.0 | 0.01 | 0.08 | 0.06 | 94 | 1012.1 |
| 20260505184921 | 36 | 82 | 4.0 | 9.0 | 0.02 | 0.08 | 0.06 | 94 | 1012.1 |
| 20260505184518 | 35 | 117 | 5.0 | 9.0 | 0.02 | 0.08 | 0.06 | 93 | 1012.7 |
| 20260505184415 | 36 | 96 | 4.0 | 8.0 | 0.02 | 0.08 | 0.06 | 94 | 1012.2 |
| 20260505183411 | 36 | 113 | 4.0 | 9.0 | 0.01 | 0.07 | 0.05 | 94 | 1012.2 |
| 20260505183022 | 36 | 99 | 4.0 | 11.0 | 0.01 | 0.07 | 0.05 | 93 | 1012.9 |
| 20260505182911 | 36 | 110 | 4.0 | 9.0 | 0.01 | 0.07 | 0.05 | 94 | 1012.4 |
| 20260505182411 | 36 | 111 | 4.0 | 8.0 | 0.01 | 0.07 | 0.05 | 94 | 1012.5 |
| 20260505181911 | 36 | 149 | 4.0 | 9.0 | 0.01 | 0.07 | 0.05 | 94 | 1012.5 |
| 20260505181526 | 35 | 117 | 2.0 | 11.0 | 0.01 | 0.07 | 0.05 | 93 | 1013.1 |
| 20260505181411 | 36 | 139 | 5.0 | 10.0 | 0.01 | 0.07 | 0.05 | 93 | 1012.6 |
| 20260505180910 | 36 | 116 | 5.0 | 11.0 | 0.01 | 0.07 | 0.05 | 93 | 1012.6 |
| 20260505180411 | 36 | 72 | 5.0 | 11.0 | 0.01 | 0.07 | 0.05 | 94 | 1012.6 |
| 20260505180023 | 35 | 98 | 5.0 | 12.0 | 0.01 | 0.07 | 0.05 | 93 | 1013.1 |
| 20260505175911 | 36 | 98 | 5.0 | 11.0 | 0.01 | 0.07 | 0.05 | 93 | 1012.7 |
| 20260505175411 | 36 | 103 | 6.0 | 11.0 | 0.02 | 0.07 | 0.05 | 93 | 1012.7 |
| 20260505174912 | 36 | 115 | 5.0 | 11.0 | 0.01 | 0.06 | 0.05 | 93 | 1012.7 |
| 20260505174512 | 36 | 115 | 5.0 | 12.0 | 0.01 | 0.06 | 0.04 | 92 | 1013.2 |
| 20260505174412 | 36 | 117 | 5.0 | 11.0 | 0.01 | 0.06 | 0.04 | 93 | 1012.6 |
| 20260505173412 | 37 | 105 | 4.0 | 8.0 | 0.01 | 0.06 | 0.04 | 93 | 1012.7 |
| 20260505173017 | 36 | 93 | 5.0 | 9.0 | 0.01 | 0.06 | 0.04 | 93 | 1013.3 |
| 20260505172913 | 37 | 88 | 4.0 | 8.0 | 0.02 | 0.06 | 0.04 | 93 | 1012.9 |
| 20260505172413 | 37 | 111 | 4.0 | 10.0 | 0.02 | 0.06 | 0.04 | 93 | 1012.9 |
| 20260505171905 | 37 | 141 | 5.0 | 10.0 | 0.02 | 0.06 | 0.04 | 93 | 1013.0 |
| 20260505171524 | 36 | 133 | 5.0 | 11.0 | 0.02 | 0.06 | 0.04 | 92 | 1013.5 |
| 20260505171406 | 37 | 146 | 4.0 | 10.0 | 0.02 | 0.06 | 0.04 | 93 | 1013.0 |
| 20260505170905 | 37 | 18 | 4.0 | 9.0 | 0.02 | 0.06 | 0.04 | 93 | 1013.0 |
| 20260505170404 | 37 | 121 | 5.0 | 8.0 | 0.03 | 0.06 | 0.04 | 93 | 1013.0 |
| 20260505170024 | 37 | 97 | 4.0 | 11.0 | 0.03 | 0.06 | 0.04 | 93 | 1013.5 |
| 20260505165906 | 37 | 89 | 4.0 | 10.0 | 0.02 | 0.05 | 0.03 | 93 | 1013.0 |
| 20260505165405 | 37 | 161 | 4.0 | 9.0 | 0.02 | 0.05 | 0.03 | 93 | 1013.0 |
| 20260505164905 | 37 | 114 | 5.0 | 9.0 | 0.02 | 0.05 | 0.03 | 93 | 1013.0 |
| 20260505164524 | 36 | 109 | 5.0 | 11.0 | 0.02 | 0.05 | 0.03 | 92 | 1013.5 |
| 20260505164404 | 37 | 122 | 4.0 | 9.0 | 0.02 | 0.05 | 0.03 | 92 | 1013.0 |
| 20260505163905 | 37 | 161 | 3.0 | 8.0 | 0.02 | 0.05 | 0.03 | 92 | 1013.0 |
| 20260505163405 | 37 | 64 | 3.0 | 8.0 | 0.02 | 0.05 | 0.03 | 92 | 1013.0 |
| 20260505163014 | 37 | 78 | 2.0 | 10.0 | 0.02 | 0.05 | 0.03 | 92 | 1013.5 |
| 20260505162405 | 37 | 107 | 3.0 | 9.0 | 0.01 | 0.04 | 0.02 | 92 | 1013.0 |
| 20260505161905 | 37 | 126 | 3.0 | 6.0 | 0.01 | 0.04 | 0.02 | 92 | 1013.0 |
| 20260505161519 | 37 | 120 | 4.0 | 7.0 | 0.01 | 0.04 | 0.02 | 91 | 1013.6 |
| 20260505161404 | 38 | 176 | 2.0 | 6.0 | 0.01 | 0.04 | 0.02 | 92 | 1013.1 |
| 20260505160906 | 38 | 148 | 3.0 | 5.0 | 0.01 | 0.04 | 0.02 | 92 | 1013.1 |
| 20260505160407 | 38 | 110 | 3.0 | 5.0 | 0.00 | 0.03 | 0.01 | 92 | 1013.1 |
| 20260505153013 | 37 | 119 | 3.0 | 7.0 | 0.00 | 0.03 | 0.01 | 90 | 1013.6 |
| 20260505152905 | 38 | 141 | 4.0 | 6.0 | 0.00 | 0.03 | 0.01 | 90 | 1013.1 |
| 20260505152405 | 38 | 101 | 5.0 | 8.0 | 0.00 | 0.03 | 0.01 | 89 | 1013.1 |
| 20260505151904 | 38 | 156 | 4.0 | 8.0 | 0.00 | 0.03 | 0.01 | 88 | 1013.1 |
| 20260505151517 | 38 | 153 | 4.0 | 8.0 | 0.00 | 0.03 | 0.01 | 88 | 1013.6 |
| 20260505151406 | 38 | 148 | 3.0 | 6.0 | 0.00 | 0.03 | 0.01 | 89 | 1013.1 |
| 20260505150900 | 38 | 183 | 4.0 | 9.0 | 0.00 | 0.03 | 0.01 | 88 | 1013.1 |
| 20260505150400 | 38 | 150 | 4.0 | 9.0 | 0.00 | 0.03 | 0.01 | 88 | 1013.1 |
| 20260505124857 | 40 | 109 | 4.0 | 8.0 | 0.00 | 0.03 | 0.01 | 87 | 1012.1 |
| 20260505124521 | 39 | 127 | 4.0 | 9.0 | 0.00 | 0.03 | 0.01 | 87 | 1012.6 |
| 20260505123857 | 40 | 162 | 4.0 | 7.0 | 0.00 | 0.03 | 0.01 | 87 | 1012.1 |
| 20260505123354 | 40 | 69 | 4.0 | 7.0 | 0.00 | 0.03 | 0.01 | 87 | 1012.1 |
| 20260505123025 | 39 | 74 | 5.0 | 8.0 | 0.00 | 0.03 | 0.01 | 85 | 1012.5 |
| 20260505122856 | 40 | 98 | 3.0 | 6.0 | 0.00 | 0.03 | 0.01 | 86 | 1012.1 |
| 20260505122354 | 40 | 102 | 4.0 | 6.0 | 0.00 | 0.03 | 0.01 | 85 | 1011.9 |
| 20260505121853 | 40 | 77 | 3.0 | 6.0 | 0.00 | 0.03 | 0.01 | 84 | 1011.8 |
| 20260505121512 | 40 | 50 | 3.0 | 5.0 | 0.00 | 0.03 | 0.01 | 84 | 1012.2 |
| 20260505121352 | 40 | 98 | 2.0 | 4.0 | 0.00 | 0.03 | 0.01 | 85 | 1011.6 |
| 20260505120850 | 40 | 80 | 2.0 | 4.0 | 0.00 | 0.03 | 0.01 | 84 | 1011.6 |
| 20260505120351 | 40 | 94 | 2.0 | 4.0 | 0.00 | 0.03 | 0.01 | 84 | 1011.6 |
| 20260505120015 | 40 | 76 | 2.0 | 4.0 | 0.00 | 0.03 | 0.01 | 83 | 1012.0 |
| 20260505115845 | 41 | 105 | 2.0 | 5.0 | 0.00 | 0.03 | 0.01 | 83 | 1011.5 |
| 20260505114833 | 41 | 94 | 3.0 | 6.0 | 0.00 | 0.03 | 0.01 | 82 | 1011.5 |
| 20260505114518 | 41 | 123 | 3.0 | 7.0 | 0.00 | 0.03 | 0.01 | 82 | 1012.0 |
| 20260505114327 | 41 | 115 | 2.0 | 6.0 | 0.00 | 0.03 | 0.01 | 82 | 1011.4 |
| 20260505113821 | 41 | 78 | 1.0 | 4.0 | 0.00 | 0.03 | 0.01 | 83 | 1011.5 |
| 20260505113315 | 41 | 104 | 1.0 | 3.0 | 0.00 | 0.03 | 0.01 | 84 | 1011.4 |
| 20260505113022 | 41 | 110 | 0.0 | 3.0 | 0.00 | 0.03 | 0.01 | 84 | 1011.8 |
| 20260505112810 | 41 | 107 | 1.0 | 3.0 | 0.00 | 0.03 | 0.01 | 84 | 1011.3 |
| 20260505112304 | 41 | 111 | 1.0 | 3.0 | 0.00 | 0.03 | 0.01 | 83 | 1011.3 |
| 20260505111757 | 41 | 148 | 0.0 | 3.0 | 0.00 | 0.03 | 0.01 | 84 | 1011.3 |
| 20260505111534 | 41 | 150 | 0.0 | 4.0 | 0.00 | 0.03 | 0.01 | 84 | 1011.6 |
| 20260505111250 | 41 | 156 | 0.0 | 3.0 | 0.00 | 0.03 | 0.01 | 86 | 1011.3 |
| 20260505110750 | 41 | 137 | 0.0 | 3.0 | 0.00 | 0.03 | 0.01 | 87 | 1011.4 |
| 20260505101748 | 41 | 165 | 0.0 | 1.0 | 0.00 | 0.03 | 0.01 | 87 | 1011.3 |
| 20260505101524 | 40 | 165 | 0.0 | 1.0 | 0.00 | 0.03 | 0.01 | 87 | 1011.7 |
| 20260505101247 | 41 | 165 | 0.0 | 1.0 | 0.00 | 0.03 | 0.01 | 87 | 1011.4 |
| 20260505100746 | 41 | 165 | 0.0 | 2.0 | 0.00 | 0.03 | 0.01 | 87 | 1011.3 |
| 20260505100245 | 41 | 165 | 0.0 | 2.0 | 0.00 | 0.03 | 0.01 | 87 | 1011.1 |
| 20260505100029 | 41 | 165 | 0.0 | 2.0 | 0.00 | 0.03 | 0.01 | 86 | 1011.6 |
| 20260505095746 | 41 | 165 | 0.0 | 2.0 | 0.00 | 0.03 | 0.01 | 86 | 1011.1 |
| 20260505095244 | 41 | 165 | 1.0 | 2.0 | 0.00 | 0.03 | 0.01 | 86 | 1011.0 |
| 20260505094745 | 42 | 164 | 1.0 | 3.0 | 0.00 | 0.03 | 0.01 | 86 | 1011.1 |
| 20260505094515 | 41 | 165 | 0.0 | 4.0 | 0.00 | 0.03 | 0.01 | 85 | 1011.7 |
| 20260505094238 | 42 | 164 | 1.0 | 3.0 | 0.00 | 0.03 | 0.01 | 86 | 1011.1 |
| 20260505093226 | 42 | 132 | 0.0 | 2.0 | 0.00 | 0.03 | 0.01 | 84 | 1010.9 |
| 20260505093018 | 41 | 42 | 0.0 | 0.0 | 0.00 | 0.03 | 0.01 | 83 | 1011.3 |
| 20260505092720 | 42 | 14 | 0.0 | 0.0 | 0.00 | 0.03 | 0.01 | 84 | 1010.8 |
| 20260505092214 | 42 | 14 | 0.0 | 0.0 | 0.00 | 0.03 | 0.01 | 83 | 1011.0 |
| 20260505091524 | 42 | 21 | 0.0 | 1.0 | 0.00 | 0.03 | 0.01 | 82 | 1011.6 |
| 20260505091202 | 43 | 14 | 0.0 | 3.0 | 0.00 | 0.03 | 0.01 | 82 | 1011.0 |
| 20260505090656 | 43 | 14 | 0.0 | 3.0 | 0.00 | 0.03 | 0.01 | 82 | 1010.9 |
| 20260505090151 | 43 | 355 | 0.0 | 2.0 | 0.00 | 0.03 | 0.01 | 83 | 1011.0 |
| 20260505090028 | 43 | 360 | 0.0 | 3.0 | 0.00 | 0.03 | 0.01 | 82 | 1011.5 |
| 20260505085644 | 43 | 0 | 0.0 | 3.0 | 0.00 | 0.03 | 0.01 | 83 | 1011.3 |
| 20260505085140 | 43 | 335 | 0.0 | 3.0 | 0.00 | 0.03 | 0.01 | 84 | 1011.4 |
| 20260505084632 | 43 | 326 | 0.0 | 3.0 | 0.00 | 0.03 | 0.01 | 84 | 1011.5 |
| 20260505084528 | 43 | 333 | 0.0 | 3.0 | 0.00 | 0.03 | 0.01 | 83 | 1012.1 |
| 20260505084126 | 43 | 29 | 0.0 | 3.0 | 0.00 | 0.03 | 0.01 | 84 | 1011.5 |
| 20260505083115 | 43 | 44 | 0.0 | 2.0 | 0.00 | 0.03 | 0.01 | 82 | 1011.6 |
| 20260505083017 | 43 | 22 | 0.0 | 1.0 | 0.00 | 0.03 | 0.01 | 81 | 1012.1 |
| 20260505082608 | 44 | 11 | 0.0 | 2.0 | 0.00 | 0.03 | 0.01 | 81 | 1011.8 |
| 20260505082102 | 44 | 11 | 0.0 | 2.0 | 0.00 | 0.03 | 0.01 | 81 | 1011.9 |
| 20260505081557 | 44 | 359 | 0.0 | 2.0 | 0.00 | 0.03 | 0.01 | 82 | 1012.0 |
| 20260505081529 | 44 | 355 | 0.0 | 2.0 | 0.00 | 0.03 | 0.01 | 82 | 1012.4 |
| 20260505081050 | 44 | 359 | 0.0 | 2.0 | 0.00 | 0.03 | 0.01 | 83 | 1011.9 |
| 20260505080038 | 44 | 359 | 0.0 | 2.0 | 0.00 | 0.03 | 0.01 | 82 | 1011.9 |
| 20260505080024 | 44 | 346 | 0.0 | 1.0 | 0.00 | 0.03 | 0.01 | 82 | 1012.3 |
| 20260505075026 | 44 | 338 | 0.0 | 1.0 | 0.00 | 0.03 | 0.01 | 83 | 1011.9 |
| 20260505074526 | 44 | 329 | 0.0 | 3.0 | 0.00 | 0.03 | 0.01 | 82 | 1012.4 |
| 20260505074520 | 44 | 335 | 0.0 | 2.0 | 0.00 | 0.03 | 0.01 | 83 | 1011.9 |
| 20260505074015 | 44 | 322 | 1.0 | 5.0 | 0.00 | 0.03 | 0.01 | 83 | 1011.9 |
| 20260505073509 | 45 | 306 | 1.0 | 5.0 | 0.00 | 0.03 | 0.01 | 83 | 1012.0 |
| 20260505073041 | 44 | 336 | 0.0 | 5.0 | 0.00 | 0.03 | 0.01 | 83 | 1012.5 |
| 20260505073002 | 45 | 342 | 1.0 | 5.0 | 0.00 | 0.03 | 0.01 | 83 | 1012.0 |
| 20260505072456 | 45 | 308 | 1.0 | 5.0 | 0.00 | 0.03 | 0.01 | 84 | 1012.0 |
| 20260505071539 | 44 | 329 | 1.0 | 4.0 | 0.00 | 0.03 | 0.01 | 83 | 1012.5 |
| 20260505071445 | 45 | 342 | 1.0 | 4.0 | 0.00 | 0.03 | 0.01 | 84 | 1012.0 |
| 20260505070938 | 45 | 353 | 0.0 | 3.0 | 0.01 | 0.03 | 0.01 | 85 | 1012.0 |
| 20260505070432 | 45 | 341 | 0.0 | 2.0 | 0.01 | 0.03 | 0.01 | 84 | 1012.1 |
| 20260505070020 | 44 | 335 | 0.0 | 4.0 | 0.01 | 0.03 | 0.01 | 84 | 1012.7 |